Regional Weather Roundup
Issued by NWS

Home | Current Version | Previous Version | Graphics & Text | Print | Product List | Glossary On
Versions: 1 2 3 4 5 6 7 8 9 10 11 12 13 14 15 16 17 18 19 20 21 22 23 24 25 26 27 28 29 30 31 32 33 34 35 36 37 38 39 40 41 42 43 44 45 46 47 48 49 50
000
ASUS43 KFSD 211202
RWRSD

WEATHER ROUNDUP FOR SOUTH DAKOTA
NATIONAL WEATHER SERVICE SIOUX FALLS SD
600 AM CST SAT JAN 21 2017

NOTE: "FAIR" INDICATES FEW OR NO CLOUDS BELOW 12,000 FEET WITH NO
SIGNIFICANT WEATHER AND/OR OBSTRUCTIONS TO VISIBILITY.


SDZ001>005-009-010-012>017-211300-
NORTHWEST AND NORTH CENTRAL SOUTH DAKOTA

CITY           SKY/WX    TMP DP  RH WIND       PRES   REMARKS
BUFFALO          N/A     31  29  92 W9        29.26R WCI  23
FAITH            N/A     30  30 100 NW13      29.30F WCI  20
MOBRIDGE       CLOUDY    28  25  88 NW6       29.28S WCI  22
$$

SDZ012>016-024>037-041>051-057-063-072>074-211300-
SOUTHWEST AND SOUTH CENTRAL SOUTH DAKOTA

CITY           SKY/WX    TMP DP  RH WIND       PRES   REMARKS
RAPID CTY ARPT PTCLDY    32  28  85 N8        29.34S WCI  25
PIERRE         CLOUDY    26  24  92 W7        29.33R WCI  18
CUSTER         CLEAR     24  21  88 CALM      29.31S
ELLSWORTH AFB  PTCLDY    32  32 100 N7        29.33S WCI  26
PHILIP         CLOUDY    34  32  92 W10       29.33S WCI  26
PINE RIDGE     CLOUDY    29  28  96 SW6       29.36S WCI  23
SPEARFISH      FAIR      28  28 100 CALM      29.34S
WINNER         CLOUDY    30  27  88 W6        29.34F WCI  24
$$

SDZ004>011-016>023-039-040-211300-
NORTHEAST SOUTH DAKOTA

CITY           SKY/WX    TMP DP  RH WIND       PRES   REMARKS
ABERDEEN       FOG       31  29  92 CALM      29.32F VSB 3/4
WATERTOWN      LGT RAIN  34  34 100 SE7       29.32R FOG     WCI  28
SISSETON         N/A     33  33 100 S7        29.36S WCI  27
$$

SDZ017-020-022-023-036>040-048>070-211300-
SOUTHEAST SOUTH DAKOTA

CITY           SKY/WX    TMP DP  RH WIND       PRES   REMARKS
SIOUX FALLS    FOG       36  36 100 SE6       29.34S VSB 1/4
HURON          CLOUDY    25  24  96 NW7       29.34R WCI  17
CHAMBERLAIN    CLOUDY    28  27  99 SW7       29.35S FOG     WCI  20
MITCHELL       CLOUDY    30  27  88 W12       29.36R WCI  20
YANKTON        CLOUDY    36  34  93 SW5       29.34R
$$

ABBREVIATIONS USED IN REMARKS
   TC - TEMPERATURE IN CELSIUS
  WCI - WIND CHILL INDEX
   HX - HEAT INDEX
  VSB - VISIBILITY





USA.gov is the U.S. government's official web portal to all federal, state and local government web resources and services.